Location: Newark
(49.3000°N, 9.4667°E)
Time: 23:20:12
(UTC+00:00)

Tiros 1 - Pass Details

Date: 31 May 2019
Orbit: 631 x 664 km, 48.4° (Epoch: 19 June)

Event Time Altitude Azimuth Distance (km) Brightness Sun altitude
Rises 08:33:53 0° 250° (WSW) 2,915 10.2 47.4°
Reaches altitude 10° 08:36:13 10° 248° (WSW) 2,011 9.5 47.7°
Maximum altitude 08:40:48 67° 166° (SSE) 689 8.5 48.4°
Drops below altitude 10° 08:45:26 10° 84° (E) 2,030 10.4 49.1°
Sets 08:47:47 0° 82° (E) 2,945 11.0 49.4°
